Location: Newark
(35.2672°N, 80.7344°W)
Time: 20:59:29
(UTC+00:00)

Vanguard 2 Rocket - Pass Details

Date: 21 January 2020
Orbit: 553 x 3327 km, 32.9° (Epoch: 26 February)

Event Time Altitude Azimuth Distance (km) Brightness Sun altitude
Rises 13:24:02 0° 267° (W) 3,424 9.4 9.0°
Reaches altitude 10° 13:26:04 10° 266° (W) 2,699 8.9 9.4°
Maximum altitude 13:32:37 77° 181° (S) 1,409 8.2 10.5°
Drops below altitude 10° 13:44:40 10° 98° (E) 4,747 11.9 12.5°
Sets 13:49:25 0° 97° (E) 6,189 12.3 13.3°
